When you browse on this site, cookies collect data to enhance your experience and personalize the content and advertising you see.
Visit our Privacy Policy to learn more. By continuing to use the site, you agree to this use of cookies and data.
  • En España
  • Lista de países
  • Para 7 días
  • Temperatura del agua
  • Mapa Satelital
  • El tiempo en el mapa
  • Informadores
  • user-avatar
    Iniciar sesión

    Tiempo cada hora Yevlakh

    Hoy, 18 Diciembre, Martes

    Tiempo Temperatura Precipitaciones Viento Presión Humedad
    00:00 +7°C° 0.3 mm 1 mps 767 mmHg 88%
    01:00 +7°C° 0.3 mm 1 mps 767 mmHg 88%
    02:00 +7°C° 0.3 mm 1 mps 767 mmHg 88%
    03:00 +7°C° 0 mm 1 mps 767 mmHg 87%
    04:00 +7°C° 0.3 mm 1 mps 767 mmHg 87%
    05:00 +7°C° 0.3 mm 1 mps 767 mmHg 86%
    06:00 +7°C° 0.3 mm 1 mps 767 mmHg 86%
    07:00 +7°C° 0.4 mm 1 mps 767 mmHg 86%
    08:00 +7°C° 0.4 mm 1 mps 767 mmHg 85%
    09:00 +8°C° 0 mm 1 mps 767 mmHg 86%
    10:00 +8°C° 0.3 mm 1 mps 766 mmHg 85%
    11:00 +8°C° 0.3 mm 1 mps 766 mmHg 84%
    12:00 +8°C° 0.3 mm 1 mps 766 mmHg 83%
    13:00 +8°C° 0.1 mm 1 mps 766 mmHg 82%
    14:00 +9°C° 0.1 mm 1 mps 766 mmHg 82%
    15:00 +9°C° 0 mm 1 mps 766 mmHg 81%
    16:00 +9°C° 0.1 mm 1 mps 767 mmHg 84%
    17:00 +8°C° 0.1 mm 1 mps 767 mmHg 87%
    18:00 +8°C° 0.1 mm 1 mps 768 mmHg 90%
    19:00 +8°C° 0.1 mm 1 mps 768 mmHg 90%
    20:00 +8°C° 0.1 mm 1 mps 768 mmHg 91%
    21:00 +8°C° 0.1 mm 1 mps 769 mmHg 92%
    22:00 +8°C° 0.1 mm 1 mps 769 mmHg 92%
    23:00 +8°C° 0.1 mm 1 mps 769 mmHg 92%

    Mañana, 19 Diciembre, Miércoles

    Tiempo Temperatura Precipitaciones Viento Presión Humedad
    00:00 +8°C° 0.1 mm 1 mps 769 mmHg 92%
    01:00 +7°C° 0 mm 1 mps 769 mmHg 92%
    02:00 +7°C° 0 mm 1 mps 769 mmHg 92%
    03:00 +7°C° 0 mm 1 mps 769 mmHg 92%
    04:00 +7°C° 0 mm 1 mps 769 mmHg 91%
    05:00 +7°C° 0 mm 1 mps 770 mmHg 91%
    06:00 +7°C° 0 mm 1 mps 770 mmHg 91%
    07:00 +7°C° 0 mm 1 mps 770 mmHg 89%
    08:00 +8°C° 0 mm 1 mps 770 mmHg 87%
    09:00 +8°C° 0 mm 1 mps 770 mmHg 85%
    10:00 +8°C° 0 mm 1 mps 769 mmHg 83%
    11:00 +9°C° 0 mm 1 mps 769 mmHg 81%
    12:00 +8°C° 0 mm 2 mps 769 mmHg 79%
    13:00 +8°C° 0 mm 2 mps 769 mmHg 79%
    14:00 +10°C° 0 mm 1 mps 768 mmHg 78%
    15:00 +10°C° 0 mm 1 mps 768 mmHg 77%
    16:00 +9°C° 0 mm 1 mps 769 mmHg 80%
    17:00 +9°C° 0 mm 1 mps 769 mmHg 83%
    18:00 +8°C° 0 mm 1 mps 769 mmHg 86%
    19:00 +8°C° 0 mm 1 mps 769 mmHg 87%
    20:00 +7°C° 0 mm 2 mps 769 mmHg 88%
    21:00 +7°C° 0 mm 2 mps 769 mmHg 88%
    22:00 +8°C° 0 mm 1 mps 769 mmHg 88%
    23:00 +8°C° 0 mm 1 mps 769 mmHg 87%

    Pasado mañana, 20 Diciembre, Jueves

    Tiempo Temperatura Precipitaciones Viento Presión Humedad
    00:00 +7°C° 0 mm 1 mps 768 mmHg 87%
    01:00 +7°C° 0 mm 1 mps 768 mmHg 86%
    02:00 +7°C° 0 mm 1 mps 768 mmHg 86%
    03:00 +6°C° 0 mm 0 mps 768 mmHg 85%
    04:00 +7°C° 0 mm 1 mps 768 mmHg 85%
    05:00 +7°C° 0 mm 1 mps 768 mmHg 85%
    06:00 +7°C° 0 mm 1 mps 767 mmHg 85%
    07:00 +8°C° 0 mm 1 mps 767 mmHg 83%
    08:00 +8°C° 0 mm 1 mps 767 mmHg 80%
    09:00 +8°C° 0 mm 1 mps 767 mmHg 77%
    10:00 +9°C° 0 mm 1 mps 767 mmHg 74%
    11:00 +9°C° 0 mm 2 mps 766 mmHg 70%
    12:00 +10°C° 0 mm 2 mps 766 mmHg 67%
    13:00 +10°C° 0 mm 2 mps 765 mmHg 66%
    14:00 +10°C° 0 mm 2 mps 765 mmHg 65%
    15:00 +11°C° 0 mm 1 mps 765 mmHg 64%
    16:00 +10°C° 0 mm 1 mps 765 mmHg 68%
    17:00 +10°C° 0 mm 1 mps 765 mmHg 71%
    18:00 +9°C° 0 mm 1 mps 766 mmHg 74%
    19:00 +9°C° 0 mm 1 mps 766 mmHg 74%
    20:00 +9°C° 0 mm 1 mps 766 mmHg 74%
    21:00 +9°C° 0 mm 1 mps 766 mmHg 75%
    22:00 +9°C° 0.1 mm 1 mps 766 mmHg 74%
    23:00 +8°C° 0.1 mm 2 mps 766 mmHg 74%

    21 Diciembre, Viernes

    Tiempo Temperatura Precipitaciones Viento Presión Humedad
    00:00 +8°C° 0.1 mm 2 mps 766 mmHg 74%
    01:00 +8°C° 0.1 mm 2 mps 766 mmHg 73%
    02:00 +8°C° 0.1 mm 2 mps 766 mmHg 72%
    03:00 +8°C° 0.1 mm 2 mps 766 mmHg 71%
    04:00 +7°C° 0 mm 2 mps 766 mmHg 70%
    05:00 +7°C° 0 mm 2 mps 767 mmHg 70%
    06:00 +8°C° 0 mm 1 mps 767 mmHg 69%
    07:00 +9°C° 0 mm 1 mps 767 mmHg 67%
    08:00 +9°C° 0 mm 1 mps 767 mmHg 64%
    09:00 +10°C° 0 mm 1 mps 768 mmHg 62%
    10:00 +11°C° 0 mm 1 mps 767 mmHg 59%
    11:00 +11°C° 0 mm 1 mps 767 mmHg 56%
    12:00 +12°C° 0 mm 1 mps 767 mmHg 53%
    13:00 +12°C° 0 mm 1 mps 767 mmHg 54%
    14:00 +12°C° 0 mm 1 mps 767 mmHg 55%
    15:00 +12°C° 0 mm 2 mps 767 mmHg 56%
    16:00 +10°C° 0 mm 2 mps 767 mmHg 64%
    17:00 +9°C° 0 mm 2 mps 767 mmHg 71%
    18:00 +8°C° 0 mm 2 mps 768 mmHg 78%
    19:00 +8°C° 0 mm 2 mps 768 mmHg 82%
    20:00 +7°C° 0 mm 2 mps 768 mmHg 86%
    21:00 +7°C° 0 mm 2 mps 768 mmHg 89%
    22:00 +7°C° 0 mm 2 mps 768 mmHg 90%
    23:00 +7°C° 0 mm 2 mps 768 mmHg 91%

    22 Diciembre, Sábado

    Tiempo Temperatura Precipitaciones Viento Presión Humedad
    00:00 +7°C° 0 mm 1 mps 768 mmHg 92%
    01:00 +7°C° 0 mm 1 mps 767 mmHg 92%
    02:00 +7°C° 0 mm 1 mps 767 mmHg 92%
    03:00 +6°C° 0 mm 0 mps 767 mmHg 93%
    04:00 +6°C° 0 mm 0 mps 767 mmHg 92%
    05:00 +5°C° 0 mm 0 mps 767 mmHg 92%
    06:00 +5°C° 0 mm 0 mps 767 mmHg 92%
    07:00 +6°C° 0 mm 0 mps 767 mmHg 90%
    08:00 +6°C° 0 mm 0 mps 766 mmHg 87%
    09:00 +7°C° 0 mm 0 mps 766 mmHg 84%
    10:00 +8°C° 0 mm 1 mps 766 mmHg 81%
    11:00 +9°C° 0 mm 1 mps 765 mmHg 77%
    12:00 +10°C° 0 mm 1 mps 765 mmHg 73%
    13:00 +10°C° 0 mm 1 mps 764 mmHg 71%
    14:00 +9°C° 0 mm 2 mps 764 mmHg 69%
    15:00 +10°C° 0 mm 2 mps 763 mmHg 66%
    16:00 +9°C° 0 mm 2 mps 764 mmHg 70%
    17:00 +9°C° 0 mm 1 mps 764 mmHg 73%
    18:00 +9°C° 0 mm 1 mps 764 mmHg 76%
    19:00 +8°C° 0 mm 1 mps 765 mmHg 76%
    20:00 +8°C° 0 mm 1 mps 765 mmHg 76%
    21:00 +8°C° 0 mm 1 mps 765 mmHg 76%
    22:00 +8°C° 0 mm 1 mps 765 mmHg 75%
    23:00 +8°C° 0 mm 1 mps 765 mmHg 75%

    23 Diciembre, Domingo

    Tiempo Temperatura Precipitaciones Viento Presión Humedad
    00:00 +8°C° 0 mm 1 mps 765 mmHg 75%
    01:00 +8°C° 0 mm 1 mps 765 mmHg 75%
    02:00 +7°C° 0 mm 1 mps 765 mmHg 74%
    03:00 +7°C° 0 mm 1 mps 765 mmHg 74%
    04:00 +7°C° 0 mm 1 mps 765 mmHg 73%
    05:00 +7°C° 0 mm 1 mps 765 mmHg 72%
    06:00 +7°C° 0 mm 1 mps 765 mmHg 71%
    07:00 +7°C° 0 mm 1 mps 766 mmHg 67%
    08:00 +8°C° 0 mm 1 mps 766 mmHg 63%
    09:00 +8°C° 0 mm 0 mps 766 mmHg 60%
    10:00 +10°C° 0 mm 1 mps 766 mmHg 57%
    11:00 +10°C° 0 mm 1 mps 765 mmHg 54%
    12:00 +11°C° 0 mm 1 mps 765 mmHg 51%
    13:00 +12°C° 0 mm 2 mps 765 mmHg 50%
    14:00 +12°C° 0 mm 2 mps 764 mmHg 48%
    15:00 +12°C° 0 mm 2 mps 764 mmHg 47%
    16:00 +10°C° 0 mm 2 mps 764 mmHg 50%
    17:00 +9°C° 0 mm 2 mps 764 mmHg 53%
    18:00 +8°C° 0 mm 2 mps 765 mmHg 55%
    19:00 +8°C° 0 mm 2 mps 764 mmHg 55%
    20:00 +8°C° 0 mm 2 mps 764 mmHg 55%
    21:00 +7°C° 0 mm 2 mps 764 mmHg 55%
    22:00 +7°C° 0 mm 2 mps 764 mmHg 54%
    23:00 +7°C° 0 mm 2 mps 763 mmHg 53%
    Mostrar más